SCP
0 0 0 0 0 0 0 0 0 0 0 0 0 0 0 0 0 0 0 0 0 0 0 0 0 0 0 0 0 0 0 0 0 0 0 0 0 0 0 0 0 0 0 0
0 0 0 0 0 0 0 0 0 0 0 0 0 0 0 0 0 0 0 0 0 0 0 0 0 0 0 0 0 0 0 0 0 0 0 0 0 0 0 0 0 0 0 0
0 0 0 0 0 0 0 0 0 0 0 0 0 0 0 0 0 0 0 0 0 0 0 0 0 0 0 0 0 0 0 0 0 0 0 0 0 0 0 0 0 0 0 0
0 0 0 0 0 0 0 0 0 0 0 0 0 0 0 0 0 0 0 0 0 0 0 0 0 0 0 0 0 0 0 0 0 0 0 0 0 0 0 0 0 0 0 0
0 0 0 0 0 0 0 0 0 0 0 0 0 0 0 0 0 0 0 0 0 0 0 0 0 0 0 0 0 0 0 0 0 0 0 0 0 0 0 0 0 0 0 0
0 0 0 0 0 0 0 0 0 0 0 0 0 0 0 0 0 0 0 0 0 0 0 0 0 0 0 0 0 0 0 0 0 0 0 0 0 0 0 0 0 0 0 0
0 0 0 0 0 0 0 0 0 0 0 0 0 0 0 0 0 0 0 0 0 0 0 0 0 0 0 0 0 0 0 0 0 0 0 0 0 0 0 0 0 0 0 0
0 0 0 0 0 0 0 0 0 0 0 0 0 0 0 0 0 0 0 0 0 0 0 0 0 0 0 0 0 0 0 0 0 0 0 0 0 0 0 0 0 0 0 0
0 0 0 0 0 0 0 0 0 0 0 0 0 0 0 0 0 0 0 0 0 0 0 0 0 0 0 0 0 0 0 0 0 0 0 0 0 0 0 0 0 0 0 0
0 0 0 0 0 0 0 0 0 0 0 0 0 0 0 0 0 0 0 0 0 0 0 0 0 0 0 0 0 0 0 0 0 0 0 0 0 0 0 0 0 0 0 0
0 0 0 0 0 0 0 0 0 0 0 0 0 0 0 0 0 0 0 0 0 0 0 0 0 0 0 0 0 0 0 0 0 0 0 0 0 0 0 0 0 0 0 0
0 0 0 0 0 0 0 0 0 0 0 0 0 0 0 0 0 0 0 0 0 0 0 0 0 0 0 0 0 0 0 0 0 0 0 0 0 0 0 0 0 0 0 0
0 0 0 0 0 0 0 0 0 0 0 0 0 0 0 0 0 0 0 0 0 0 0 0 0 0 0 0 0 0 0 0 0 0 0 0 0 0 0 0 0 0 0 0
0 0 0 0 0 0 0 0 0 0 0 0 0 0 0 0 0 0 0 0 0 0 0 0 0 0 0 0 0 0 0 0 0 0 0 0 0 0 0 0 0 0 0 0
0 0 0 0 0 0 0 0 0 0 0 0 0 0 0 0 0 0 0 0 0 0 0 0 0 0 0 0 0 0 0 0 0 0 0 0 0 0 0 0 0 0 0 0
0 0 0 0 0 0 0 0 0 0 0 0 0 0 0 0 0 0 0 0 0 0 0 0 0 0 0 0 0 0 0 0 0 0 0 0 0 0 0 0 0 0 0 0
0 0 0 0 0 0 0 0 0 0 0 0 0 0 0 0 0 0 0 0 0 0 0 0 0 0 0 0 0 0 0 0 0 0 0 0 0 0 0 0 0 0 0 0
0 0 0 0 0 0 0 0 0 0 0 0 0 0 0 0 0 0 0 0 0 0 0 0 0 0 0 0 0 0 0 0 0 0 0 0 0 0 0 0 0 0 0 0
0 0 0 0 0 0 0 0 0 0 0 0 0 0 0 0 0 0 0 0 0 0 0 0 0 0 0 0 0 0 0 0 0 0 0 0 0 0 0 0 0 0 0 0
0 0 0 0 0 0 0 0 0 0 0 0 0 0 0 0 0 0 0 0 0 0 0 0 0 0 0 0 0 0 0 0 0 0 0 0 0 0 0 0 0 0 0 0
0 0 0 0 0 0 0 0 0 0 0 0 0 0 0 0 0 0 0 0 0 0 0 0 0 0 0 0 0 0 0 0 0 0 0 0 0 0 0 0 0 0 0 0
0 0 0 0 0 0 0 0 0 0 0 0 0 0 0 0 0 0 0 0 0 0 0 0 0 0 0 0 0 0 0 0 0 0 0 0 0 0 0 0 0 0 0 0
0 0 0 0 0 0 0 0 0 0 0 0 0 0 0 0 0 0 0 0 0 0 0 0 0 0 0 0 0 0 0 0 0 0 0 0 0 0 0 0 0 0 0 0
0 0 0 0 0 0 0 0 0 0 0 0 0 0 0 0 0 0 0 0 0 0 0 0 0 0 0 0 0 0 0 0 0 0 0 0 0 0 0 0 0 0 0 0
0 0 0 0 0 0 0 0 0 0 0 0 0 0 0 0 0 0 0 0 0 0 0 0 0 0 0 0 0 0 0 0 0 0 0 0 0 0 0 0 0 0 0 0
0 0 0 0 0 0 0 0 0 0 0 0 0 0 0 0 0 0 0 0 0 0 0 0 0 0 0 0 0 0 0 0 0 0 0 0 0 0 0 0 0 0 0 0
Wind_Speed_500mb
18 22 34 43 32 4 16 17 14 7 4 10 25 29 29 24 22 28 28 33 37 44 36 43 47 49 51 50 48 49 49 46 48 48 47 47 45 43 42 41 40 41 40 40
13 36 31 23 20 11 14 17 13 4 2 6 8 28 28 28 28 45 45 41 41 36 43 50 52 56 57 54 54 54 53 53 52 48 45 44 38 40 40 41 42 43 43 44
23 6 27 25 19 22 9 15 10 3 5 1 10 24 20 14 27 30 38 41 37 42 47 50 61 61 62 66 62 57 59 59 55 52 50 48 47 46 46 46 44 44 43 44
15 4 32 27 31 32 20 12 13 14 9 6 3 9 8 4 10 14 26 30 40 46 52 47 56 64 68 64 60 63 65 63 60 58 55 53 49 47 42 39 38 40 42 43
14 17 27 34 37 27 11 18 15 6 6 3 6 8 6 2 3 7 10 3 6 26 45 52 59 58 62 63 64 65 70 66 64 64 60 56 55 50 47 45 44 44 44 45
3 0 7 14 5 14 25 20 12 6 3 7 8 9 7 3 3 8 12 17 17 18 20 29 46 56 65 66 69 70 72 70 72 68 65 63 58 54 54 51 48 46 45 45
6 6 2 6 16 13 11 29 7 7 9 9 2 7 13 12 19 16 19 16 6 6 9 17 29 35 46 74 78 77 77 77 74 72 72 67 60 59 56 54 51 50 49 47
21 14 21 12 8 20 32 30 12 15 11 9 4 13 4 4 8 3 2 7 15 15 10 3 11 20 27 47 66 73 78 77 76 73 71 68 66 64 58 56 53 53 51 48
21 13 4 1 3 13 19 20 8 12 2 4 9 7 8 6 10 11 11 16 21 28 31 24 13 4 10 23 41 48 57 70 73 70 69 69 67 65 61 57 54 55 54 52
15 11 1 4 4 2 10 20 8 1 11 9 7 7 10 21 23 10 12 19 20 28 29 30 27 20 11 9 19 30 38 46 55 60 64 66 65 63 61 59 57 57 56 55
12 5 8 8 14 25 9 15 3 6 4 7 7 8 17 36 29 21 11 13 18 23 25 26 27 25 21 14 9 11 19 28 40 48 55 61 63 64 64 64 60 59 59 59
9 9 10 19 4 3 4 14 22 12 12 3 2 0 3 27 31 24 15 18 17 16 16 19 21 22 20 19 15 8 7 13 23 32 42 49 56 59 63 64 62 62 63 64
16 6 10 8 6 4 14 12 22 7 3 14 8 7 5 17 19 15 12 10 9 11 14 13 13 16 17 15 14 12 8 4 11 20 28 36 43 50 55 60 62 65 65 66
18 6 9 18 6 13 16 19 17 21 9 13 12 13 13 23 24 17 8 8 9 17 21 20 19 16 13 12 11 8 6 4 5 8 14 20 27 34 41 48 54 60 63 68
9 25 5 7 3 2 12 28 32 38 32 25 15 17 33 37 28 27 17 13 20 21 23 24 24 23 20 17 15 13 11 10 11 14 18 21 25 29 33 38 43 49 56 62
4 12 6 3 9 6 5 20 35 34 27 21 3 12 2 29 29 24 17 22 24 23 23 24 24 24 24 23 22 20 17 15 14 16 19 22 26 31 36 41 44 47 51 56
12 11 10 15 4 4 8 22 30 29 23 27 24 11 17 15 25 29 25 29 28 25 23 21 20 19 18 17 18 17 18 18 19 20 23 26 30 34 36 39 43 47 49 52
25 24 5 4 5 16 10 2 17 35 31 28 13 17 23 23 19 23 30 35 29 25 22 17 14 11 10 11 12 14 17 20 22 25 27 29 31 33 37 40 43 44 48 52
10 16 9 9 20 6 24 16 16 21 25 31 35 17 24 40 30 15 34 31 28 23 16 10 7 6 9 12 15 17 19 22 25 29 32 34 36 37 39 40 42 43 46 48
14 9 7 7 11 24 9 6 24 15 18 33 49 39 39 39 15 14 38 32 25 17 12 7 3 3 7 11 13 16 20 24 28 30 33 37 39 40 42 44 45 45 45 46
14 3 15 7 7 11 13 15 24 25 9 14 60 47 59 23 14 50 43 30 21 15 8 3 3 6 9 12 15 19 21 24 26 28 30 33 37 40 43 43 43 44 45 45
17 16 8 6 8 18 21 17 20 3 11 17 36 47 49 39 59 53 39 27 19 11 4 2 7 12 16 21 25 27 28 27 27 28 30 34 37 40 42 45 44 43 42 42
9 14 16 19 14 3 45 0 15 20 27 29 45 53 68 66 50 40 29 20 12 5 3 10 16 22 27 30 32 33 34 32 29 29 31 34 36 38 39 39 40 40 39 38
6 5 8 8 13 8 31 7 20 38 42 54 64 62 55 53 41 32 22 13 5 5 12 17 22 27 29 30 29 29 30 29 30 31 32 32 31 29 31 31 33 35 34 34
5 23 13 1 1 11 23 26 43 43 49 57 50 46 43 38 34 25 19 12 9 12 16 19 21 24 24 24 23 24 25 28 29 30 30 31 30 30 28 26 27 25 26 29
15 12 14 11 34 17 45 58 56 57 57 51 48 44 36 29 26 23 18 14 12 12 13 13 13 14 16 17 19 21 23 25 26 27 28 30 29 27 25 22 20 19 20 21
Wind_Direction_500mb
190 196 201 194 194 182 174 196 200 181 98 217 239 257 253 237 237 242 231 228 230 231 226 224 220 220 218 215 214 217 217 215 217 218 218 220 223 227 231 233 234 235 235 236
177 217 204 182 160 136 176 183 195 115 88 228 264 268 262 245 239 239 239 238 236 232 229 227 223 222 222 223 221 222 222 220 223 225 226 230 231 233 235 236 236 237 238 239
200 236 164 168 174 174 189 204 178 159 145 127 299 273 239 230 237 243 243 244 241 233 232 228 224 225 225 223 224 225 226 225 225 227 227 229 228 231 233 235 239 241 243 244
229 166 184 176 185 190 197 188 147 137 185 236 317 281 263 215 262 242 250 240 240 238 236 229 230 227 229 231 231 229 229 229 228 230 230 233 238 240 243 246 246 246 246 247
182 172 175 185 192 188 193 146 139 123 117 281 195 255 260 37 164 110 92 71 251 241 238 234 236 234 235 235 235 234 232 231 232 233 232 235 239 240 240 239 241 243 245 247
112 329 194 197 82 185 140 114 80 83 144 238 199 235 271 216 92 291 285 315 288 243 225 232 234 236 235 233 233 234 234 234 234 234 233 236 239 241 243 242 244 247 249 250
143 169 206 174 112 132 179 163 139 198 203 232 92 203 267 290 307 273 303 324 16 151 231 243 231 235 239 230 228 230 232 234 235 235 235 237 241 242 244 246 247 249 251 255
175 198 182 166 202 179 179 184 168 187 192 183 124 223 220 321 350 356 314 69 71 73 72 87 216 231 239 228 227 230 231 233 235 237 238 240 242 244 247 248 249 251 254 257
180 196 83 179 147 179 181 204 111 107 18 186 193 238 296 136 97 102 73 76 72 71 68 69 74 138 219 219 220 227 233 234 236 238 240 241 243 245 248 251 252 253 254 255
182 153 173 132 162 102 229 140 163 124 159 224 188 248 181 168 158 152 80 73 67 72 70 68 70 77 99 174 209 220 228 229 234 237 239 242 245 248 250 252 253 254 256 256
152 111 144 168 212 182 151 186 167 146 205 182 153 225 176 167 161 147 111 76 67 64 67 66 67 71 78 96 134 193 219 226 230 232 235 238 241 244 247 250 252 254 256 257
165 107 149 190 52 328 2 209 192 195 195 232 302 266 140 154 155 144 117 102 79 62 57 65 68 70 80 82 89 115 176 216 228 233 236 240 243 246 248 251 253 254 255 257
177 146 110 151 211 165 217 191 209 113 96 189 155 161 61 125 140 139 118 109 78 83 90 84 85 78 73 78 83 89 102 178 230 241 244 246 248 251 253 254 255 256 257 258
138 128 191 198 205 135 196 194 207 202 198 153 217 152 188 187 178 178 146 139 131 110 97 93 89 82 76 67 59 48 28 352 307 283 275 270 268 266 265 263 261 260 259 258
143 199 121 29 77 157 217 189 191 206 205 208 185 194 191 194 192 182 158 149 138 117 105 96 91 87 81 73 60 43 24 358 330 308 297 287 279 276 274 272 270 266 262 261
37 154 125 122 12 64 179 207 202 212 209 227 191 222 261 165 152 157 165 157 142 124 108 102 96 90 84 75 65 53 38 17 351 325 308 301 294 287 280 275 273 270 268 265
154 148 154 202 257 346 263 211 197 209 202 206 207 197 158 156 165 169 165 165 151 136 122 107 95 85 73 60 45 32 20 8 355 342 328 318 310 301 294 288 279 273 271 270
174 190 23 173 85 243 264 132 204 204 209 211 215 155 171 168 158 165 166 157 148 137 127 114 101 86 61 39 19 5 355 348 342 336 329 320 315 310 303 297 293 289 282 274
182 142 138 184 192 303 252 199 175 180 225 204 209 179 150 140 127 137 160 155 147 138 130 112 85 39 4 347 339 334 330 328 325 323 322 318 315 310 305 303 297 291 285 281
163 139 122 167 183 206 250 181 167 140 261 200 197 201 160 155 182 162 168 157 151 148 141 129 99 354 332 326 327 327 325 322 319 317 317 318 316 314 310 307 302 296 290 286
153 133 195 163 247 277 234 153 150 186 261 185 192 182 163 180 192 158 161 160 156 148 141 113 357 334 330 329 330 330 332 329 327 323 321 319 317 315 313 310 306 300 294 290
163 160 164 120 208 256 159 134 189 170 125 149 161 160 158 164 142 148 156 157 153 152 163 280 313 321 325 325 326 327 330 330 326 321 320 317 314 311 309 308 306 302 298 293
164 184 170 198 202 72 181 16 196 153 140 139 144 154 151 140 141 145 150 153 156 174 291 320 325 325 324 325 325 326 326 326 324 322 320 318 314 312 310 309 306 304 301 300
230 186 174 138 196 213 190 175 167 151 142 139 137 140 142 140 145 149 154 161 181 284 308 318 324 326 327 326 326 325 325 326 326 326 326 326 324 324 322 318 319 322 324 323
156 152 165 239 20 106 191 186 167 161 153 149 146 146 146 146 148 157 167 188 234 277 296 307 316 319 322 328 332 336 337 338 340 342 342 343 345 344 343 343 342 339 330 327
190 164 185 211 181 185 194 185 178 169 164 165 163 158 157 161 163 167 178 198 224 256 280 291 306 321 334 342 345 345 342 341 342 347 348 349 347 346 343 344 342 338 339 339
Wind_Speed_850mb
18 22 34 43 32 4 16 17 14 7 4 10 25 29 29 24 22 28 28 33 37 44 36 43 47 49 51 50 48 49 49 46 48 48 47 47 45 43 42 41 40 41 40 40
13 36 31 23 20 11 14 17 13 4 2 6 8 28 28 28 28 45 45 41 41 36 43 50 52 56 57 54 54 54 53 53 52 48 45 44 38 40 40 41 42 43 43 44
23 6 27 25 19 22 9 15 10 3 5 1 10 24 20 14 27 30 38 41 37 42 47 50 61 61 62 66 62 57 59 59 55 52 50 48 47 46 46 46 44 44 43 44
15 4 32 27 31 32 20 12 13 14 9 6 3 9 8 4 10 14 26 30 40 46 52 47 56 64 68 64 60 63 65 63 60 58 55 53 49 47 42 39 38 40 42 43
14 17 27 34 37 27 11 18 15 6 6 3 6 8 6 2 3 7 10 3 6 26 45 52 59 58 62 63 64 65 70 66 64 64 60 56 55 50 47 45 44 44 44 45
3 0 7 14 5 14 25 20 12 6 3 7 8 9 7 3 3 8 12 17 17 18 20 29 46 56 65 66 69 70 72 70 72 68 65 63 58 54 54 51 48 46 45 45
6 6 2 6 16 13 11 29 7 7 9 9 2 7 13 12 19 16 19 16 6 6 9 17 29 35 46 74 78 77 77 77 74 72 72 67 60 59 56 54 51 50 49 47
21 14 21 12 8 20 32 30 12 15 11 9 4 13 4 4 8 3 2 7 15 15 10 3 11 20 27 47 66 73 78 77 76 73 71 68 66 64 58 56 53 53 51 48
21 13 4 1 3 13 19 20 8 12 2 4 9 7 8 6 10 11 11 16 21 28 31 24 13 4 10 23 41 48 57 70 73 70 69 69 67 65 61 57 54 55 54 52
15 11 1 4 4 2 10 20 8 1 11 9 7 7 10 21 23 10 12 19 20 28 29 30 27 20 11 9 19 30 38 46 55 60 64 66 65 63 61 59 57 57 56 55
12 5 8 8 14 25 9 15 3 6 4 7 7 8 17 36 29 21 11 13 18 23 25 26 27 25 21 14 9 11 19 28 40 48 55 61 63 64 64 64 60 59 59 59
9 9 10 19 4 3 4 14 22 12 12 3 2 0 3 27 31 24 15 18 17 16 16 19 21 22 20 19 15 8 7 13 23 32 42 49 56 59 63 64 62 62 63 64
16 6 10 8 6 4 14 12 22 7 3 14 8 7 5 17 19 15 12 10 9 11 14 13 13 16 17 15 14 12 8 4 11 20 28 36 43 50 55 60 62 65 65 66
18 6 9 18 6 13 16 19 17 21 9 13 12 13 13 23 24 17 8 8 9 17 21 20 19 16 13 12 11 8 6 4 5 8 14 20 27 34 41 48 54 60 63 68
9 25 5 7 3 2 12 28 32 38 32 25 15 17 33 37 28 27 17 13 20 21 23 24 24 23 20 17 15 13 11 10 11 14 18 21 25 29 33 38 43 49 56 62
4 12 6 3 9 6 5 20 35 34 27 21 3 12 2 29 29 24 17 22 24 23 23 24 24 24 24 23 22 20 17 15 14 16 19 22 26 31 36 41 44 47 51 56
12 11 10 15 4 4 8 22 30 29 23 27 24 11 17 15 25 29 25 29 28 25 23 21 20 19 18 17 18 17 18 18 19 20 23 26 30 34 36 39 43 47 49 52
25 24 5 4 5 16 10 2 17 35 31 28 13 17 23 23 19 23 30 35 29 25 22 17 14 11 10 11 12 14 17 20 22 25 27 29 31 33 37 40 43 44 48 52
10 16 9 9 20 6 24 16 16 21 25 31 35 17 24 40 30 15 34 31 28 23 16 10 7 6 9 12 15 17 19 22 25 29 32 34 36 37 39 40 42 43 46 48
14 9 7 7 11 24 9 6 24 15 18 33 49 39 39 39 15 14 38 32 25 17 12 7 3 3 7 11 13 16 20 24 28 30 33 37 39 40 42 44 45 45 45 46
14 3 15 7 7 11 13 15 24 25 9 14 60 47 59 23 14 50 43 30 21 15 8 3 3 6 9 12 15 19 21 24 26 28 30 33 37 40 43 43 43 44 45 45
17 16 8 6 8 18 21 17 20 3 11 17 36 47 49 39 59 53 39 27 19 11 4 2 7 12 16 21 25 27 28 27 27 28 30 34 37 40 42 45 44 43 42 42
9 14 16 19 14 3 45 0 15 20 27 29 45 53 68 66 50 40 29 20 12 5 3 10 16 22 27 30 32 33 34 32 29 29 31 34 36 38 39 39 40 40 39 38
6 5 8 8 13 8 31 7 20 38 42 54 64 62 55 53 41 32 22 13 5 5 12 17 22 27 29 30 29 29 30 29 30 31 32 32 31 29 31 31 33 35 34 34
5 23 13 1 1 11 23 26 43 43 49 57 50 46 43 38 34 25 19 12 9 12 16 19 21 24 24 24 23 24 25 28 29 30 30 31 30 30 28 26 27 25 26 29
15 12 14 11 34 17 45 58 56 57 57 51 48 44 36 29 26 23 18 14 12 12 13 13 13 14 16 17 19 21 23 25 26 27 28 30 29 27 25 22 20 19 20 21
Wind_Direction_850mb
190 196 201 194 194 182 174 196 200 181 98 217 239 257 253 237 237 242 231 228 230 231 226 224 220 220 218 215 214 217 217 215 217 218 218 220 223 227 231 233 234 235 235 236
177 217 204 182 160 136 176 183 195 115 88 228 264 268 262 245 239 239 239 238 236 232 229 227 223 222 222 223 221 222 222 220 223 225 226 230 231 233 235 236 236 237 238 239
200 236 164 168 174 174 189 204 178 159 145 127 299 273 239 230 237 243 243 244 241 233 232 228 224 225 225 223 224 225 226 225 225 227 227 229 228 231 233 235 239 241 243 244
229 166 184 176 185 190 197 188 147 137 185 236 317 281 263 215 262 242 250 240 240 238 236 229 230 227 229 231 231 229 229 229 228 230 230 233 238 240 243 246 246 246 246 247
182 172 175 185 192 188 193 146 139 123 117 281 195 255 260 37 164 110 92 71 251 241 238 234 236 234 235 235 235 234 232 231 232 233 232 235 239 240 240 239 241 243 245 247
112 329 194 197 82 185 140 114 80 83 144 238 199 235 271 216 92 291 285 315 288 243 225 232 234 236 235 233 233 234 234 234 234 234 233 236 239 241 243 242 244 247 249 250
143 169 206 174 112 132 179 163 139 198 203 232 92 203 267 290 307 273 303 324 16 151 231 243 231 235 239 230 228 230 232 234 235 235 235 237 241 242 244 246 247 249 251 255
175 198 182 166 202 179 179 184 168 187 192 183 124 223 220 321 350 356 314 69 71 73 72 87 216 231 239 228 227 230 231 233 235 237 238 240 242 244 247 248 249 251 254 257
180 196 83 179 147 179 181 204 111 107 18 186 193 238 296 136 97 102 73 76 72 71 68 69 74 138 219 219 220 227 233 234 236 238 240 241 243 245 248 251 252 253 254 255
182 153 173 132 162 102 229 140 163 124 159 224 188 248 181 168 158 152 80 73 67 72 70 68 70 77 99 174 209 220 228 229 234 237 239 242 245 248 250 252 253 254 256 256
152 111 144 168 212 182 151 186 167 146 205 182 153 225 176 167 161 147 111 76 67 64 67 66 67 71 78 96 134 193 219 226 230 232 235 238 241 244 247 250 252 254 256 257
165 107 149 190 52 328 2 209 192 195 195 232 302 266 140 154 155 144 117 102 79 62 57 65 68 70 80 82 89 115 176 216 228 233 236 240 243 246 248 251 253 254 255 257
177 146 110 151 211 165 217 191 209 113 96 189 155 161 61 125 140 139 118 109 78 83 90 84 85 78 73 78 83 89 102 178 230 241 244 246 248 251 253 254 255 256 257 258
138 128 191 198 205 135 196 194 207 202 198 153 217 152 188 187 178 178 146 139 131 110 97 93 89 82 76 67 59 48 28 352 307 283 275 270 268 266 265 263 261 260 259 258
143 199 121 29 77 157 217 189 191 206 205 208 185 194 191 194 192 182 158 149 138 117 105 96 91 87 81 73 60 43 24 358 330 308 297 287 279 276 274 272 270 266 262 261
37 154 125 122 12 64 179 207 202 212 209 227 191 222 261 165 152 157 165 157 142 124 108 102 96 90 84 75 65 53 38 17 351 325 308 301 294 287 280 275 273 270 268 265
154 148 154 202 257 346 263 211 197 209 202 206 207 197 158 156 165 169 165 165 151 136 122 107 95 85 73 60 45 32 20 8 355 342 328 318 310 301 294 288 279 273 271 270
174 190 23 173 85 243 264 132 204 204 209 211 215 155 171 168 158 165 166 157 148 137 127 114 101 86 61 39 19 5 355 348 342 336 329 320 315 310 303 297 293 289 282 274
182 142 138 184 192 303 252 199 175 180 225 204 209 179 150 140 127 137 160 155 147 138 130 112 85 39 4 347 339 334 330 328 325 323 322 318 315 310 305 303 297 291 285 281
163 139 122 167 183 206 250 181 167 140 261 200 197 201 160 155 182 162 168 157 151 148 141 129 99 354 332 326 327 327 325 322 319 317 317 318 316 314 310 307 302 296 290 286
153 133 195 163 247 277 234 153 150 186 261 185 192 182 163 180 192 158 161 160 156 148 141 113 357 334 330 329 330 330 332 329 327 323 321 319 317 315 313 310 306 300 294 290
163 160 164 120 208 256 159 134 189 170 125 149 161 160 158 164 142 148 156 157 153 152 163 280 313 321 325 325 326 327 330 330 326 321 320 317 314 311 309 308 306 302 298 293
164 184 170 198 202 72 181 16 196 153 140 139 144 154 151 140 141 145 150 153 156 174 291 320 325 325 324 325 325 326 326 326 324 322 320 318 314 312 310 309 306 304 301 300
230 186 174 138 196 213 190 175 167 151 142 139 137 140 142 140 145 149 154 161 181 284 308 318 324 326 327 326 326 325 325 326 326 326 326 326 324 324 322 318 319 322 324 323
156 152 165 239 20 106 191 186 167 161 153 149 146 146 146 146 148 157 167 188 234 277 296 307 316 319 322 328 332 336 337 338 340 342 342 343 345 344 343 343 342 339 330 327
190 164 185 211 181 185 194 185 178 169 164 165 163 158 157 161 163 167 178 198 224 256 280 291 306 321 334 342 345 345 342 341 342 347 348 349 347 346 343 344 342 338 339 339